Location: Falkner
(32.6954°N, 86.0502°W)
Time: 11:52:28
(UTC+00:00)

Cosmos 1340 - Pass Details

Date: 29 October 2020
Orbit: 501 x 504 km, 81.2° (Epoch: 04 December)

Event Time Altitude Azimuth Distance (km) Brightness Sun altitude
Rises 23:43:27 0° 354° (N) 2,609 6.2 -10.7°
Reaches altitude 10° 23:45:35 10° 357° (N) 1,721 5.3 -11.1°
Maximum altitude 23:49:21 71° 81° (E) 536 2.5 -11.9°
Drops below altitude 10° 23:53:06 10° 167° (SSE) 1,709 5.3 -12.7°
Sets 23:55:13 0° 169° (S) 2,589 6.2 -13.1°
